C/2001 Q1 ( NEAT )

Japanese version
Home page
Updated on March 21, 2003

---------------------------------------------------------------------

* Profile

Discovery Date August 17, 2001
Magnitude 18.8 mag
Discoverer Near-Earth-Asteroid Tracking Team (Jet Propulsion Laboratory)

* Orbital Elements

Epoch 2001 Sept. 8.0 TT = JDT 2452160.5
T 2001 Sept. 20.8687 TT                                 MPCM
q   5.833993             (2000.0)            P               Q
z  +0.005825       Peri.  175.4614      +0.7350996      +0.3146778
 +/-0.000000       Node   139.2614      -0.6473809      +0.5888250
e   0.966017       Incl.   66.9497      -0.2013121      -0.7444884
From 74 observations 2001 July 16-2003 Jan. 27, mean residual 0".7.

* Finding Charts

* Magnitudes Graph

        m1 = 7.0 + 5 log d + 10.0 log r

---------------------------------------------------------------------

The orbital elements are published at the MPC Ephemerides and Orbital Elements.
The charts are made with StellaNavigator Ver.2.0 for Windows (AstroArts / ASCII).
The magnitudes graphs are made with Comet for Windows.

---------------------------------------------------------------------

Copyright(C) Seiichi Yoshida (comet@aerith.net). All rights reserved.